Location: Bretagne
(43.8474°N, 0.4650°W)
Time: 12:51:03
(UTC+00:00)

Radarsat Rocket - Pass Details

Date: 28 April 2026
Orbit: 933 x 1491 km, 100.5° (Epoch: 12 May)

Event Time Altitude Azimuth Distance (km) Brightness Sun altitude
Rises 19:26:56 0° 182° (S) 4,576 7.3 -5.1°
Reaches altitude 10° 19:29:53 10° 188° (S) 3,620 6.8 -5.6°
Maximum altitude 19:38:08 48° 260° (W) 1,860 5.9 -6.9°
Drops below altitude 10° 19:46:13 10° 334° (NNW) 3,532 7.8 -8.2°
Sets 19:49:05 0° 340° (NNW) 4,457 8.3 -8.6°
